Lapse_Rate
6.6 6.5 6.4 6.3 5.9 6.1 7.1 7.8 8.1 7.4 7.2 7.1 6.9 6.8 6.5 6.6 6.8 7.7 7.5 7.8 7.5 7.7 7.8 7.6 7.5 7.5 7.5 7.3 7.1 6.8 6.4 6.2 5.9 5.6 5.5 5.7 5.8 5.8 5.8 5.7 5.3 5.4 5.5 5.5 5.7 5.8 6.0 6.0 6.1
6.6 6.5 6.2 5.9 6.4 7.3 8.3 7.8 7.8 7.4 7.2 7.2 7.1 7.1 6.8 6.7 6.7 7.0 7.5 7.7 7.8 7.8 7.7 7.7 7.6 7.6 7.6 7.5 7.3 7.0 6.7 6.3 6.1 5.8 5.7 5.6 5.7 5.8 5.8 5.7 5.6 5.3 5.5 5.5 5.5 5.7 5.9 6.0 6.1
6.4 6.3 5.9 5.8 6.5 7.5 8.3 7.5 7.2 7.5 7.4 7.3 7.1 7.1 6.9 6.9 6.7 7.1 7.5 7.7 8.0 7.9 7.8 7.7 7.7 7.7 7.7 7.7 7.5 7.1 7.0 6.7 6.2 6.0 5.9 5.8 5.8 5.8 5.9 5.8 5.6 5.4 5.4 5.5 5.5 5.6 5.8 5.9 6.0
6.3 6.1 5.9 5.8 6.7 7.1 7.1 7.5 7.7 7.4 7.1 7.3 7.0 7.1 6.7 6.8 6.8 7.1 7.7 7.9 8.0 7.8 7.9 7.7 7.9 7.9 7.9 7.9 7.6 7.3 7.0 6.7 6.5 6.3 6.1 6.0 5.8 5.8 5.7 5.8 5.7 5.5 5.3 5.4 5.5 5.7 5.8 5.9 5.9
6.0 5.8 5.8 5.8 6.4 6.6 7.1 7.4 7.5 7.4 6.7 7.0 6.8 6.8 7.0 6.5 6.9 7.3 7.7 7.8 8.0 7.9 8.1 7.9 8.0 8.0 7.9 7.9 7.8 7.5 7.2 6.7 6.5 6.6 6.4 6.2 6.0 5.7 5.7 5.7 5.7 5.5 5.3 5.3 5.4 5.6 5.8 5.9 5.9
5.4 5.8 5.8 6.5 6.8 6.0 6.8 7.0 6.9 7.1 6.7 6.5 6.7 6.9 7.0 6.9 7.1 7.4 7.6 7.6 7.7 7.8 8.0 8.2 8.2 8.1 8.0 8.0 7.8 7.5 7.4 7.0 6.7 6.7 6.6 6.4 6.2 5.9 5.6 5.6 5.5 5.4 5.4 5.3 5.3 5.5 5.6 5.8 5.9
5.9 5.5 6.1 6.3 6.1 5.8 6.3 6.9 6.4 6.2 6.3 6.3 6.2 6.8 6.7 6.4 7.3 7.3 7.6 7.5 7.5 7.8 8.0 8.2 8.3 8.2 8.0 8.0 7.8 7.6 7.5 7.2 7.0 6.8 6.7 6.5 6.4 6.1 5.7 5.6 5.4 5.4 5.3 5.4 5.2 5.3 5.4 5.6 5.7
6.0 5.3 5.7 5.8 6.1 6.4 5.9 6.7 6.7 6.2 6.0 6.5 5.8 6.4 6.5 7.3 7.3 7.5 7.6 7.7 7.6 7.7 8.1 8.1 8.1 8.1 8.1 8.0 7.9 7.7 7.6 7.3 7.1 6.9 6.7 6.6 6.6 6.4 6.1 5.7 5.6 5.3 5.4 5.2 5.3 5.1 5.2 5.3 5.4
6.1 5.4 6.0 6.3 6.0 6.0 5.2 6.3 5.7 6.4 6.4 5.6 6.2 6.1 6.1 6.8 7.0 7.3 7.6 7.6 7.5 7.6 8.0 8.2 8.2 8.1 8.1 8.1 7.8 7.7 7.6 7.4 7.3 7.0 6.9 6.8 6.8 6.7 6.4 6.0 5.7 5.6 5.4 5.5 5.1 5.1 5.1 5.1 5.2
5.8 5.6 6.2 5.7 5.2 5.1 5.2 5.9 6.7 6.4 5.8 6.0 6.1 5.4 6.0 6.6 6.7 7.0 7.3 7.7 7.6 7.6 7.8 8.1 8.3 8.2 8.1 7.9 7.9 7.8 7.8 7.6 7.5 7.4 7.2 7.0 6.8 6.8 6.6 6.3 6.0 5.7 5.7 5.4 5.4 5.0 5.1 5.1 5.1
5.0 5.5 5.4 5.3 4.7 5.5 5.3 5.3 5.6 6.6 6.7 5.5 5.8 6.6 6.1 5.8 6.8 6.8 7.1 7.5 7.7 7.6 7.7 8.0 8.1 8.1 8.2 8.2 8.0 7.9 7.8 7.7 7.5 7.5 7.3 7.1 6.9 7.0 6.9 6.6 6.3 6.0 5.8 5.8 5.5 5.3 5.1 5.1 5.0
5.7 5.6 5.8 5.3 5.2 5.5 5.3 5.2 5.5 5.7 6.5 6.6 6.7 6.7 6.5 6.2 6.3 6.5 6.9 7.2 7.5 7.5 7.8 8.0 8.2 8.2 8.1 8.1 8.0 8.0 8.0 7.9 7.8 7.6 7.4 7.3 7.1 6.9 6.9 6.7 6.5 6.2 6.1 6.0 5.8 5.4 5.3 5.1 5.1
5.7 5.5 5.7 5.7 5.6 5.7 5.3 5.5 5.3 5.2 6.1 6.6 6.5 6.7 6.6 6.0 6.2 6.5 6.5 6.9 7.2 7.6 7.6 8.1 7.8 8.0 8.0 8.1 8.0 8.0 7.9 7.8 7.8 7.6 7.4 7.3 7.0 7.0 6.8 6.7 6.6 6.6 6.4 6.3 6.1 5.8 5.5 5.4 5.2
5.3 5.4 5.7 5.5 5.6 5.5 5.6 5.6 5.4 5.0 5.1 5.3 6.1 6.6 6.7 6.4 5.8 6.2 6.7 6.7 6.9 7.2 7.7 8.0 7.9 7.8 8.0 7.9 7.8 8.1 8.0 7.8 7.4 7.6 7.5 7.3 7.1 6.9 6.9 6.8 6.7 6.6 6.6 6.4 6.4 6.2 6.0 5.7 5.6
5.4 5.4 4.7 4.4 4.7 4.4 4.7 5.5 4.9 4.7 3.5 3.6 5.0 5.9 6.7 6.9 6.7 6.3 6.6 6.6 6.8 6.9 7.4 7.8 7.8 7.9 7.8 8.0 7.7 7.8 8.0 7.7 7.6 7.5 7.5 7.3 7.2 7.0 7.0 6.9 6.8 6.7 6.7 6.7 6.6 6.5 6.3 6.0 6.0
4.9 5.0 5.2 4.8 4.3 4.6 4.3 4.8 4.8 4.2 4.5 3.8 4.3 4.9 6.0 6.7 6.8 6.8 6.4 6.9 6.7 6.8 7.0 7.5 7.9 7.8 7.9 8.0 8.0 7.7 7.7 7.7 7.6 7.4 7.5 7.4 7.2 7.1 7.1 6.9 6.8 6.7 6.9 6.8 6.8 6.7 6.6 6.5 6.1
4.7 5.6 5.4 5.0 4.4 4.2 4.0 4.2 4.3 4.1 4.0 4.0 4.0 4.0 4.2 5.3 6.1 6.4 6.4 6.3 7.0 6.8 7.0 7.1 7.7 7.8 7.9 7.9 7.8 7.9 7.5 7.5 7.4 7.4 7.4 7.4 7.2 7.2 7.3 7.2 6.9 6.8 6.9 7.0 6.9 6.9 6.8 6.7 6.5
5.6 5.2 5.2 5.1 4.8 4.3 4.2 4.2 4.2 4.2 4.0 3.8 3.8 3.7 3.7 3.8 3.9 4.8 6.1 5.8 6.1 6.8 6.9 6.9 7.4 7.8 7.9 8.1 7.7 7.7 7.5 7.4 7.3 7.3 7.4 7.3 7.3 7.4 7.5 7.4 7.2 7.0 7.0 7.1 7.1 6.9 7.0 6.9 6.8
4.3 4.4 4.5 4.7 4.6 3.9 4.0 4.0 4.3 4.6 4.4 4.2 3.9 3.7 3.6 3.5 3.5 3.6 4.4 4.3 6.2 6.6 6.7 6.9 7.0 7.5 7.8 7.7 7.3 7.5 7.7 7.2 7.2 7.3 7.2 7.3 7.5 7.6 7.5 7.3 7.3 7.3 7.3 7.2 7.2 7.0 7.3 7.2 6.9
4.3 4.2 4.5 4.5 4.7 4.3 5.1 4.7 5.3 5.0 5.6 4.5 4.4 4.2 4.2 3.9 3.8 3.7 3.9 4.4 5.3 5.6 6.5 6.9 7.0 7.1 7.5 7.7 7.5 7.6 7.7 7.6 7.3 7.3 7.2 7.3 7.4 7.6 7.5 7.4 7.4 7.4 7.3 7.4 7.3 7.2 7.1 7.1 7.0
4.3 4.3 4.6 4.3 4.6 6.0 6.2 5.7 8.2 7.2 6.3 5.8 6.1 6.4 6.0 5.0 4.9 4.6 4.1 4.1 4.8 5.1 6.2 6.7 7.0 7.1 7.4 7.7 7.8 7.3 7.3 7.5 7.4 7.4 7.4 7.5 7.4 7.5 7.7 7.7 7.6 7.5 7.3 7.5 7.4 7.1 6.9 6.9 6.9
4.7 5.3 5.1 5.5 6.0 6.8 7.5 7.1 8.2 7.0 6.7 5.3 6.1 6.3 6.4 6.7 6.5 6.4 5.6 4.6 4.7 5.2 5.8 6.3 7.2 7.2 7.8 7.9 7.7 7.2 7.2 7.9 7.9 7.5 7.5 7.7 7.8 7.7 7.7 7.8 7.7 7.5 7.3 7.5 7.6 7.3 6.9 6.9 7.1
5.8 5.7 5.9 6.2 6.6 7.1 8.4 8.0 9.3 5.9 5.8 5.9 5.3 5.3 5.5 5.5 6.2 6.6 6.8 6.7 6.1 6.3 6.3 6.2 7.1 7.3 7.7 8.0 7.6 7.4 7.6 8.1 8.0 7.8 7.8 8.0 8.0 7.8 7.6 7.6 7.8 7.7 7.6 7.4 7.5 7.3 6.9 6.7 6.7
6.3 6.1 6.2 6.6 7.3 8.2 8.5 8.1 7.1 5.1 4.7 5.0 4.9 5.2 5.4 5.2 5.7 6.2 6.7 7.3 7.8 7.5 7.1 6.7 6.8 7.6 7.8 8.0 8.1 7.2 5.6 7.9 8.0 8.2 8.1 8.0 8.1 8.0 7.9 7.6 7.7 7.5 7.4 7.1 7.2 6.9 6.7 6.7 6.5
6.1 6.1 7.7 8.1 8.1 9.1 8.5 8.2 5.3 5.3 4.7 4.5 4.5 4.7 5.1 4.6 5.5 6.2 6.7 7.2 8.0 7.9 7.8 7.5 7.6 8.0 7.9 8.1 8.3 8.0 7.6 8.3 8.2 8.1 8.0 7.9 7.9 7.9 8.0 7.6 7.4 7.3 7.5 7.2 6.9 6.4 6.2 6.7 6.4
6.3 6.3 7.5 8.1 8.8 8.9 8.1 7.9 5.5 5.6 4.7 4.7 4.5 4.0 4.2 4.7 5.4 6.5 6.7 7.2 7.4 7.7 8.0 7.8 7.3 7.5 8.1 8.4 8.1 8.2 8.2 8.1 7.9 7.8 7.6 7.6 7.8 7.9 7.8 7.7 7.4 7.0 7.0 6.7 6.7 6.6 6.7 6.6 6.2
6.1 6.2 6.8 7.1 7.5 7.7 7.9 5.8 5.7 5.7 5.2 4.9 4.7 4.6 4.4 4.7 4.9 5.9 6.6 6.7 7.0 7.1 7.8 7.9 7.0 6.9 7.0 7.8 8.1 8.1 8.1 7.9 7.7 7.7 7.7 7.4 7.3 7.5 7.5 7.4 7.3 7.0 6.7 6.9 6.6 6.0 6.3 6.2 6.3
6.0 6.2 6.6 6.9 7.4 7.8 8.1 6.0 5.6 5.5 5.1 4.8 4.9 4.7 4.5 4.5 4.5 5.0 6.2 6.6 7.1 6.8 7.1 7.5 7.4 7.4 7.1 6.7 7.8 8.1 8.1 7.9 7.8 7.8 7.4 6.9 7.3 7.1 7.1 7.1 7.2 7.1 6.8 6.6 6.4 6.0 6.1 6.4 6.4
6.0 6.2 6.5 7.0 7.3 7.8 8.0 5.9 4.6 5.0 4.9 4.8 4.7 4.6 4.7 4.5 4.4 4.8 5.7 6.1 6.7 6.7 6.8 7.7 7.8 7.7 7.6 7.5 7.5 7.4 7.3 7.2 6.9 7.3 7.1 7.4 6.9 7.0 7.0 7.1 7.1 6.8 6.7 6.6 6.4 6.3 6.2 6.5 6.2
6.1 6.5 6.9 7.0 7.5 7.4 6.7 5.6 5.0 5.2 5.0 4.9 4.8 4.6 4.6 4.5 4.6 4.7 5.0 5.2 5.7 6.3 6.7 7.0 7.6 7.7 7.5 7.2 7.0 6.9 6.7 7.1 6.7 6.8 6.9 6.6 6.3 7.0 7.0 7.3 7.4 6.8 6.5 6.7 6.6 6.4 6.1 6.3 6.1
Wind_Speed
6 4 4 5 6 5 5 4 2 6 3 2 1 7 13 11 9 9 3 5 4 14 20 25 23 21 20 16 14 14 15 18 21 21 20 20 21 20 19 19 18 17 16 15 12 10 10 9 11
2 3 5 2 6 8 6 8 8 2 4 6 11 7 8 9 4 10 10 5 8 17 20 23 21 21 21 18 17 16 16 17 20 20 20 20 20 20 19 19 18 16 15 15 12 10 10 10 11
5 5 5 4 6 11 5 1 2 3 2 6 5 3 6 4 8 10 10 3 10 16 20 21 21 21 21 19 17 16 17 17 18 21 21 20 19 19 19 19 17 16 15 14 12 11 10 11 12
5 5 4 7 13 6 4 1 2 7 9 1 4 13 5 2 11 15 14 3 11 14 18 22 19 21 22 19 18 18 17 17 19 19 20 19 19 18 17 18 17 16 14 14 12 11 11 12 12
4 4 9 11 14 10 10 12 11 11 9 8 7 7 7 5 11 14 8 3 10 13 15 20 18 20 22 20 19 19 18 18 18 19 19 19 18 17 17 18 17 16 15 13 13 10 12 13 13
6 4 9 13 14 7 12 13 11 11 9 10 9 8 4 2 19 15 8 4 7 11 11 18 17 18 20 20 19 19 20 19 18 18 19 19 18 17 17 17 16 16 15 13 13 13 13 13 13
10 8 14 14 13 11 12 9 11 13 13 8 7 9 5 11 18 14 9 3 6 10 10 14 19 18 18 20 21 22 19 19 18 18 19 18 19 19 17 16 16 16 15 15 13 14 14 13 14
5 5 13 12 12 14 6 10 10 13 10 6 2 1 4 13 15 12 8 5 6 9 11 13 17 18 18 17 17 19 20 19 19 18 19 19 19 18 18 17 15 15 16 14 14 14 15 14 13
3 7 11 15 12 12 2 10 9 6 14 7 9 15 12 11 17 13 10 4 6 9 11 12 14 15 16 17 15 14 16 18 18 18 17 18 17 18 18 18 19 17 15 15 14 14 14 14 12
7 9 10 8 8 10 8 10 15 14 15 14 15 3 10 18 17 18 17 11 8 11 13 13 14 14 15 14 16 18 17 18 18 19 19 18 17 18 18 17 18 16 15 13 14 14 13 14 13
2 9 8 9 5 6 10 13 15 19 22 18 20 22 22 25 25 20 20 17 12 10 11 13 14 14 15 13 13 14 16 16 17 19 19 19 16 17 16 15 15 16 14 13 13 13 14 13 8
9 6 9 10 9 13 16 19 20 22 26 23 23 24 25 22 21 21 19 18 15 10 13 15 16 14 15 11 10 12 8 12 9 17 20 16 11 11 13 11 16 15 16 14 15 13 13 11 11
12 9 6 8 14 15 17 21 24 24 23 24 20 20 21 20 19 21 20 19 16 16 14 16 17 16 14 15 11 12 12 10 14 14 16 16 11 10 12 11 14 14 15 14 12 11 10 12 12
5 10 15 15 15 19 18 18 11 9 18 15 17 20 20 22 21 19 20 20 17 17 14 16 19 17 16 15 15 11 10 13 15 15 17 19 17 10 11 11 8 11 14 15 14 10 9 9 10
8 17 16 10 2 8 13 20 16 10 8 16 19 23 26 26 25 23 21 21 18 17 16 15 18 20 20 19 16 12 12 13 11 13 17 19 20 14 11 9 11 10 15 15 14 11 12 9 8
10 10 5 7 9 6 6 18 13 10 11 24 27 23 24 26 26 23 23 21 20 19 19 17 16 21 22 19 15 12 12 12 11 14 17 17 20 20 12 10 10 15 9 9 7 8 8 9 9
7 9 12 10 5 13 5 25 12 22 25 24 24 24 23 24 25 23 22 21 22 20 19 19 18 21 22 20 16 14 14 10 11 14 14 18 19 21 13 11 11 13 7 6 9 9 9 9 9
14 17 16 16 6 15 21 29 21 22 21 23 23 22 23 23 23 23 24 22 19 20 20 20 17 20 22 16 15 13 12 12 10 11 10 16 17 19 12 11 11 10 9 8 8 10 8 10 9
14 16 21 17 13 16 17 24 27 24 19 19 18 18 20 23 24 21 20 15 14 17 15 17 19 19 16 16 16 14 14 14 13 12 15 17 17 18 14 11 10 11 12 12 12 8 11 8 8
12 16 20 17 5 15 20 25 26 16 16 18 16 17 18 20 20 20 18 15 13 14 13 15 19 20 18 16 15 14 14 13 13 12 14 17 17 18 13 14 12 14 11 13 12 11 5 6 8
13 15 18 22 19 17 11 19 13 14 12 15 18 20 19 18 19 18 16 14 12 13 13 13 15 15 17 17 13 14 12 11 11 12 13 15 17 17 16 18 15 14 13 11 11 12 12 7 6
13 7 11 13 14 12 13 13 20 10 13 19 17 18 19 19 17 16 15 14 13 13 12 13 11 12 8 11 13 19 16 14 12 12 11 12 16 18 18 19 18 16 11 13 12 12 11 9 8
5 6 10 11 14 16 10 9 6 16 17 22 20 19 18 18 17 16 14 13 12 13 12 11 12 8 6 4 3 9 13 12 10 9 10 9 11 17 18 18 17 14 11 13 11 12 12 12 10
8 9 12 11 8 6 2 6 8 11 16 18 20 19 20 19 16 16 15 13 12 12 12 11 10 10 10 9 11 14 10 10 7 5 6 6 6 7 13 14 12 13 12 13 13 14 15 12 12
4 6 3 3 5 6 5 11 6 14 15 14 19 19 19 19 18 15 17 14 14 14 13 11 12 13 12 12 13 12 7 7 6 4 3 3 6 7 10 11 11 11 14 14 14 17 18 17 14
3 6 5 5 5 11 5 2 4 8 12 16 15 17 20 21 18 18 16 14 14 15 13 13 14 12 15 13 13 11 11 6 5 7 4 4 4 5 6 8 11 13 14 15 15 12 12 15 15
2 6 2 8 10 6 3 5 3 14 15 14 17 19 18 18 18 17 16 15 14 14 14 14 15 15 15 17 13 13 13 12 10 9 7 5 6 5 7 8 11 11 12 14 12 10 13 11 14
12 7 4 5 4 5 3 3 6 14 15 14 17 17 18 17 18 17 17 15 16 15 13 15 17 18 19 16 15 13 14 14 12 10 10 12 11 11 11 9 9 11 11 12 12 11 12 13 12
5 9 8 5 6 4 5 5 6 9 11 13 14 15 16 17 17 16 17 17 15 16 16 17 17 17 16 16 16 14 15 15 12 13 14 14 13 13 16 12 10 10 12 12 13 13 12 16 14
8 11 12 5 4 4 2 3 7 8 10 11 13 14 15 14 15 15 17 16 17 20 20 19 18 18 17 16 15 16 17 17 17 16 16 16 15 13 13 14 10 10 10 10 11 14 15 15 13
Wind_Direction
232 239 248 240 239 245 228 228 273 248 241 166 179 295 304 297 274 299 77 301 181 173 163 165 156 154 147 147 147 145 145 150 153 155 154 151 148 147 145 145 147 148 149 154 156 150 142 135 140
213 208 219 237 253 234 235 226 233 273 335 310 286 263 235 287 281 301 320 8 198 171 165 169 156 154 147 151 152 150 149 153 153 153 153 150 148 148 146 147 150 151 149 151 154 148 138 131 130
216 233 245 241 241 247 295 96 252 90 347 288 286 262 306 298 343 316 2 273 193 169 170 162 157 154 152 156 154 153 151 154 154 152 150 148 150 151 150 151 151 150 151 150 150 145 138 132 133
194 188 207 239 236 233 287 154 258 297 310 241 312 288 301 296 343 343 329 208 184 173 171 142 157 157 152 158 160 155 154 156 151 147 148 150 153 154 154 154 154 155 153 150 149 146 143 142 143
216 248 244 243 250 262 255 266 285 287 296 289 301 296 289 46 8 3 346 199 186 172 175 163 165 158 153 160 163 158 158 158 153 151 151 153 156 159 159 160 162 160 157 155 144 152 151 152 149
212 281 242 252 246 235 271 273 287 284 282 286 281 279 263 100 4 357 345 232 197 184 180 172 167 157 154 161 163 163 165 165 161 157 155 156 157 162 164 167 169 165 163 164 161 164 159 158 153
262 247 265 285 282 259 266 296 291 303 300 311 307 271 285 10 359 354 345 285 206 191 189 176 181 172 161 165 167 170 170 169 168 166 162 160 161 165 168 173 175 169 167 166 170 164 164 162 160
258 260 265 254 268 273 308 299 289 298 304 317 267 337 317 348 350 354 360 308 230 202 197 188 186 182 181 184 175 173 173 174 176 175 170 168 169 169 171 176 181 175 170 171 166 170 164 166 167
244 250 253 260 267 280 23 298 305 305 275 275 295 292 324 326 335 336 347 317 247 220 209 198 190 187 187 189 188 179 177 177 178 181 176 173 182 181 175 188 175 181 178 172 172 171 167 168 165
240 249 282 340 309 308 312 293 304 299 291 288 293 249 303 318 319 317 315 316 284 233 213 204 198 190 192 196 190 198 191 193 194 191 184 191 193 189 187 182 180 184 179 181 173 173 171 179 179
212 259 336 267 332 310 298 289 303 294 280 287 308 298 299 308 305 300 297 297 289 255 220 218 206 199 195 190 190 205 195 197 200 197 191 199 197 190 196 184 190 190 183 187 185 175 193 200 200
264 252 274 298 304 304 290 297 282 280 285 291 290 292 289 287 289 291 291 291 287 255 237 214 216 206 203 199 193 193 195 196 202 203 195 198 200 192 199 198 192 197 186 197 194 194 204 207 205
251 280 299 288 286 283 289 276 279 275 277 284 284 293 290 290 286 284 286 285 283 279 232 223 209 210 205 208 199 198 202 195 197 191 196 197 202 193 197 204 197 193 193 197 200 204 198 206 204
6 292 291 287 282 282 284 283 287 286 292 294 297 300 302 302 298 295 290 283 277 271 253 217 214 202 210 209 207 198 195 197 206 202 196 199 206 198 204 204 193 206 199 201 202 204 206 209 209
287 288 291 290 41 306 304 274 255 279 248 300 300 304 298 293 292 289 285 287 279 269 257 232 215 202 203 206 207 198 198 203 200 207 208 197 205 194 196 206 203 200 205 205 207 203 208 213 213
282 272 281 150 304 312 301 292 323 339 304 300 296 289 288 287 284 280 284 280 281 273 265 250 208 211 205 200 206 203 200 200 201 208 203 211 206 202 194 199 207 205 184 200 197 190 198 214 215
179 293 313 309 243 307 282 298 309 295 297 294 294 293 287 287 286 285 273 272 274 274 264 250 217 214 210 203 200 203 201 198 206 209 206 204 213 211 200 200 203 207 176 192 194 198 202 216 220
314 304 299 296 320 284 295 290 300 298 291 290 292 289 289 287 289 290 286 271 283 296 283 262 236 211 210 204 197 197 200 198 204 205 206 208 211 214 207 204 202 189 198 189 196 198 206 212 214
290 287 289 291 305 300 293 294 301 307 309 298 296 298 307 312 314 294 290 296 303 297 305 268 241 212 208 203 195 198 203 205 205 206 205 202 204 212 207 211 197 190 203 199 192 188 198 208 214
270 279 283 291 260 302 298 300 295 306 350 20 354 331 327 325 324 318 321 322 321 314 310 293 262 222 208 205 201 200 204 205 210 204 206 210 202 203 210 212 209 203 204 206 197 191 178 203 193
269 276 288 294 312 284 293 298 320 333 39 17 353 339 337 332 324 319 315 312 328 326 325 308 286 260 211 212 202 195 204 207 206 207 214 211 211 206 205 213 217 210 213 202 194 193 186 186 195
284 304 291 296 314 313 325 297 305 351 344 359 348 345 341 335 333 328 326 322 337 337 330 320 296 260 265 237 206 194 186 196 206 212 212 211 213 213 213 217 217 217 209 206 201 199 199 196 190
295 292 293 295 293 302 296 279 317 10 351 343 347 347 346 342 335 335 334 335 347 348 344 343 335 342 307 218 5 198 193 204 197 205 218 207 212 222 224 217 218 214 201 205 187 188 203 208 214
281 296 275 270 280 262 327 284 59 11 343 343 349 349 351 354 341 339 339 348 359 355 351 356 6 8 16 32 48 68 293 220 210 211 193 198 202 209 226 227 213 206 199 194 189 192 199 210 221
224 282 296 246 202 275 326 304 44 4 4 353 351 350 358 3 356 339 348 359 3 4 357 360 11 20 27 47 48 58 69 55 60 56 25 233 198 210 217 224 213 210 206 201 197 205 202 197 211
274 292 294 290 313 316 329 315 53 18 13 359 2 355 358 3 1 350 349 354 5 10 5 11 26 18 21 35 48 52 49 42 44 20 6 317 316 234 213 226 222 218 212 211 216 222 222 201 207
109 240 327 274 258 267 103 102 237 21 9 2 4 1 359 360 358 350 348 360 5 10 11 17 29 29 27 22 32 40 38 32 24 13 357 331 321 314 270 222 224 231 229 218 216 217 216 215 213
235 296 227 213 278 297 92 111 4 3 360 358 4 359 355 359 359 355 359 356 5 9 14 24 32 34 33 17 26 36 36 32 24 23 5 1 350 330 289 246 228 230 227 219 212 211 220 214 220
226 224 230 265 265 283 298 92 18 20 6 4 4 359 355 356 358 360 0 2 6 7 16 25 29 36 37 27 37 31 40 32 27 28 18 12 342 350 313 249 240 232 221 218 215 217 215 222 221
262 247 232 245 215 252 300 98 30 36 17 16 7 3 356 359 358 1 3 2 7 14 17 22 17 24 28 33 34 32 39 30 24 27 17 11 7 355 349 353 254 238 247 233 217 219 221 220 222